• In Belarus
  • List of Countries
  • For 7 days
  • Water Temperature
  • Satellite Maps
  • Weather Map
  • Weather Widgets
  • user-avatar
    Login

    Hourly Weather Sucre

    Today, 21 January, Sunday

    Time Temperature Precipitation Wind Pressure Humidity
    00:00 +14°C° 0.8 mm 1 mps 539 mmHg 87%
    01:00 +14°C° 0.8 mm 1 mps 539 mmHg 89%
    02:00 +13°C° 0.8 mm 1 mps 539 mmHg 91%
    03:00 +13°C° 0.4 mm 1 mps 538 mmHg 91%
    04:00 +13°C° 0.4 mm 1 mps 538 mmHg 92%
    05:00 +13°C° 0.4 mm 2 mps 538 mmHg 93%
    06:00 +13°C° 0.1 mm 2 mps 539 mmHg 88%
    07:00 +14°C° 0.1 mm 2 mps 539 mmHg 84%
    08:00 +14°C° 0.1 mm 2 mps 540 mmHg 79%
    09:00 +16°C° 0.4 mm 2 mps 540 mmHg 72%
    10:00 +18°C° 0.4 mm 3 mps 541 mmHg 64%
    11:00 +20°C° 0.4 mm 3 mps 542 mmHg 56%
    12:00 +21°C° 0.3 mm 3 mps 541 mmHg 52%
    13:00 +22°C° 0.3 mm 4 mps 541 mmHg 49%
    14:00 +22°C° 0.3 mm 4 mps 541 mmHg 46%
    15:00 +22°C° 0.7 mm 4 mps 541 mmHg 48%
    16:00 +21°C° 0.7 mm 4 mps 540 mmHg 50%
    17:00 +21°C° 0.7 mm 4 mps 539 mmHg 52%
    18:00 +20°C° 0.1 mm 3 mps 539 mmHg 57%
    19:00 +18°C° 0.1 mm 2 mps 539 mmHg 63%
    20:00 +17°C° 0.1 mm 2 mps 539 mmHg 69%
    21:00 +16°C° 0.9 mm 2 mps 539 mmHg 73%
    22:00 +16°C° 0.9 mm 2 mps 539 mmHg 78%
    23:00 +15°C° 0.9 mm 2 mps 539 mmHg 82%

    Tomorrow, 22 January, Monday

    Time Temperature Precipitation Wind Pressure Humidity
    00:00 +15°C° 0.5 mm 1 mps 538 mmHg 85%
    01:00 +14°C° 0.5 mm 1 mps 538 mmHg 87%
    02:00 +14°C° 0.5 mm 1 mps 537 mmHg 90%
    03:00 +13°C° 0.7 mm 1 mps 537 mmHg 91%
    04:00 +13°C° 0.7 mm 1 mps 537 mmHg 91%
    05:00 +12°C° 0.7 mm 0 mps 537 mmHg 92%
    06:00 +14°C° 0.1 mm 1 mps 538 mmHg 88%
    07:00 +14°C° 0.1 mm 1 mps 538 mmHg 84%
    08:00 +15°C° 0.1 mm 1 mps 539 mmHg 80%
    09:00 +17°C° 0 mm 2 mps 540 mmHg 71%
    10:00 +19°C° 0 mm 3 mps 540 mmHg 61%
    11:00 +21°C° 0 mm 3 mps 541 mmHg 52%
    12:00 +22°C° 0 mm 4 mps 541 mmHg 48%
    13:00 +23°C° 0 mm 4 mps 541 mmHg 43%
    14:00 +25°C° 0 mm 4 mps 540 mmHg 39%
    15:00 +23°C° 0 mm 5 mps 540 mmHg 40%
    16:00 +23°C° 0 mm 5 mps 540 mmHg 42%
    17:00 +23°C° 0 mm 6 mps 539 mmHg 44%
    18:00 +21°C° 0.1 mm 5 mps 539 mmHg 51%
    19:00 +19°C° 0.1 mm 3 mps 539 mmHg 59%
    20:00 +17°C° 0.1 mm 2 mps 538 mmHg 66%
    21:00 +17°C° 0.1 mm 2 mps 539 mmHg 69%
    22:00 +16°C° 0.1 mm 1 mps 539 mmHg 71%
    23:00 +16°C° 0.1 mm 1 mps 539 mmHg 74%

    Day after tomorrow, 23 January, Tuesday

    Time Temperature Precipitation Wind Pressure Humidity
    00:00 +15°C° 0.1 mm 1 mps 539 mmHg 77%
    01:00 +15°C° 0.1 mm 1 mps 538 mmHg 81%
    02:00 +14°C° 0.1 mm 2 mps 537 mmHg 85%
    03:00 +14°C° 0.6 mm 2 mps 537 mmHg 86%
    04:00 +13°C° 0.6 mm 2 mps 537 mmHg 87%
    05:00 +13°C° 0.6 mm 1 mps 537 mmHg 89%
    06:00 +14°C° 0 mm 1 mps 537 mmHg 84%
    07:00 +14°C° 0 mm 1 mps 538 mmHg 80%
    08:00 +15°C° 0 mm 1 mps 539 mmHg 76%
    09:00 +17°C° 0.5 mm 2 mps 540 mmHg 67%
    10:00 +19°C° 0.5 mm 3 mps 540 mmHg 58%
    11:00 +21°C° 0.5 mm 3 mps 541 mmHg 50%
    12:00 +22°C° 0.2 mm 4 mps 541 mmHg 45%
    13:00 +23°C° 0.2 mm 4 mps 541 mmHg 41%
    14:00 +25°C° 0.2 mm 4 mps 541 mmHg 37%
    15:00 +25°C° 0 mm 5 mps 540 mmHg 38%
    16:00 +23°C° 0 mm 6 mps 540 mmHg 39%
    17:00 +23°C° 0 mm 6 mps 540 mmHg 40%
    18:00 +21°C° 0 mm 5 mps 539 mmHg 47%
    19:00 +19°C° 0 mm 4 mps 539 mmHg 54%
    20:00 +18°C° 0 mm 2 mps 539 mmHg 60%
    21:00 +17°C° 0 mm 2 mps 539 mmHg 64%
    22:00 +16°C° 0 mm 1 mps 539 mmHg 68%
    23:00 +15°C° 0 mm 1 mps 539 mmHg 72%

    24 January, Wednesday

    Time Temperature Precipitation Wind Pressure Humidity
    00:00 +15°C° 0 mm 1 mps 539 mmHg 75%
    01:00 +14°C° 0 mm 1 mps 538 mmHg 78%
    02:00 +14°C° 0 mm 1 mps 538 mmHg 80%
    03:00 +14°C° 0.1 mm 1 mps 538 mmHg 82%
    04:00 +13°C° 0.1 mm 1 mps 538 mmHg 83%
    05:00 +13°C° 0.1 mm 1 mps 538 mmHg 84%
    06:00 +14°C° 0.2 mm 1 mps 539 mmHg 79%
    07:00 +15°C° 0.2 mm 1 mps 540 mmHg 73%
    08:00 +16°C° 0.2 mm 1 mps 541 mmHg 67%
    09:00 +18°C° 0.4 mm 2 mps 541 mmHg 59%
    10:00 +20°C° 0.4 mm 2 mps 542 mmHg 50%
    11:00 +22°C° 0.4 mm 3 mps 543 mmHg 42%
    12:00 +22°C° 0 mm 4 mps 543 mmHg 39%
    13:00 +23°C° 0 mm 4 mps 543 mmHg 37%
    14:00 +25°C° 0 mm 5 mps 542 mmHg 34%
    15:00 +24°C° 0 mm 6 mps 542 mmHg 37%
    16:00 +23°C° 0 mm 7 mps 541 mmHg 40%
    17:00 +22°C° 0 mm 8 mps 541 mmHg 44%
    18:00 +20°C° 0.3 mm 6 mps 540 mmHg 54%
    19:00 +17°C° 0.3 mm 5 mps 540 mmHg 64%
    20:00 +17°C° 0.3 mm 3 mps 540 mmHg 74%
    21:00 +16°C° 1.2 mm 2 mps 540 mmHg 77%
    22:00 +16°C° 1.2 mm 2 mps 540 mmHg 80%
    23:00 +15°C° 1.2 mm 1 mps 541 mmHg 83%

    25 January, Thursday

    Time Temperature Precipitation Wind Pressure Humidity
    00:00 +15°C° 0.5 mm 1 mps 540 mmHg 83%
    01:00 +15°C° 0.5 mm 1 mps 540 mmHg 84%
    02:00 +14°C° 0.5 mm 1 mps 540 mmHg 85%
    03:00 +14°C° 0.1 mm 1 mps 539 mmHg 87%
    04:00 +14°C° 0.1 mm 1 mps 539 mmHg 89%
    05:00 +14°C° 0.1 mm 1 mps 539 mmHg 90%
    06:00 +14°C° 0.3 mm 1 mps 540 mmHg 88%
    07:00 +14°C° 0.3 mm 1 mps 541 mmHg 85%
    08:00 +15°C° 0.3 mm 1 mps 541 mmHg 82%
    09:00 +15°C° 0.4 mm 1 mps 541 mmHg 77%
    10:00 +16°C° 0.4 mm 1 mps 542 mmHg 71%
    11:00 +17°C° 0.4 mm 2 mps 542 mmHg 65%
    12:00 +18°C° 0.6 mm 2 mps 542 mmHg 62%
    13:00 +19°C° 0.6 mm 3 mps 542 mmHg 59%
    14:00 +19°C° 0.6 mm 3 mps 542 mmHg 56%
    15:00 +19°C° 0.5 mm 3 mps 541 mmHg 58%
    16:00 +18°C° 0.5 mm 4 mps 541 mmHg 61%
    17:00 +18°C° 0.5 mm 4 mps 540 mmHg 63%
    18:00 +17°C° 0.4 mm 3 mps 540 mmHg 69%
    19:00 +16°C° 0.4 mm 2 mps 540 mmHg 74%
    20:00 +15°C° 0.4 mm 2 mps 540 mmHg 80%
    21:00 +15°C° 0.2 mm 2 mps 540 mmHg 82%
    22:00 +14°C° 0.2 mm 1 mps 540 mmHg 84%
    23:00 +14°C° 0.2 mm 1 mps 540 mmHg 86%

    26 January, Friday

    Time Temperature Precipitation Wind Pressure Humidity
    00:00 +14°C° 0.1 mm 1 mps 540 mmHg 87%
    01:00 +14°C° 0.1 mm 1 mps 539 mmHg 89%
    02:00 +13°C° 0.1 mm 1 mps 539 mmHg 90%
    03:00 +13°C° 0.2 mm 1 mps 539 mmHg 90%
    04:00 +13°C° 0.2 mm 1 mps 539 mmHg 90%
    05:00 +13°C° 0.2 mm 1 mps 538 mmHg 91%
    06:00 +13°C° 0.1 mm 1 mps 539 mmHg 88%
    07:00 +14°C° 0.1 mm 1 mps 540 mmHg 85%
    08:00 +14°C° 0.1 mm 1 mps 540 mmHg 81%
    09:00 +15°C° 0.5 mm 1 mps 541 mmHg 75%
    10:00 +17°C° 0.5 mm 2 mps 541 mmHg 69%
    11:00 +18°C° 0.5 mm 2 mps 541 mmHg 63%
    12:00 +19°C° 0.7 mm 3 mps 541 mmHg 60%
    13:00 +19°C° 0.7 mm 3 mps 541 mmHg 57%
    14:00 +20°C° 0.7 mm 4 mps 541 mmHg 54%
    15:00 +20°C° 0.5 mm 4 mps 540 mmHg 55%
    16:00 +20°C° 0.5 mm 4 mps 539 mmHg 57%
    17:00 +19°C° 0.5 mm 4 mps 539 mmHg 58%
    18:00 +18°C° 0.5 mm 3 mps 539 mmHg 63%
    19:00 +17°C° 0.5 mm 2 mps 539 mmHg 67%
    20:00 +16°C° 0.5 mm 2 mps 538 mmHg 72%
    21:00 +16°C° 0.3 mm 1 mps 539 mmHg 74%
    22:00 +15°C° 0.3 mm 1 mps 539 mmHg 76%
    23:00 +15°C° 0.3 mm 1 mps 539 mmHg 78%
    Show more